[[{"header":{"parameterUnit":"m.s-1","parameterCategory":1,"la1":30.2991,"la2":30.254,"lo1":-89.0895,"lo2":-89.0444,"dy":0.0017,"dx":0.0017,"nx":28,"ny":28,"refTime":"2025-01-16T03:00:00:Z","depth":0,"parameterNumber":2,"parameterNumberName":"U-component_of_WINDS"},"data":[0,0,0,0,0,0,0,0,0,0,0,0,0,0,0,0,0,0,0,0,0,0,0,0,0,0,0,0,0,0,0,0,0,0,0,0,0,0,0,0,0,0,0,0,0,0,0,0,0,0,0,0,0,0,0,0,0,0,0.9212,0.9212,0,0.9212,0.9212,0.9212,0.9189,0.9188,0.9188,0.9187,0.9187,0.9188,0.9188,0,0,0,0,0,0,0,0,0,0,0,0,0,0.9191,0.9192,0.9212,0.9212,0.9212,0.9212,0.9212,0.9212,0.9189,0.9188,0.9188,0.9187,0.9187,0.9188,0.9188,0,0,0,0,0,0,0,0,0,0,0,0,0,0.9197,0.9192,0.9212,0.92,0.9199,0.9212,0.9212,0.9212,0.9189,0.9188,0.9187,0.9187,0.9187,0.9188,0.9188,0.9212,0,0,0.9191,0.9191,0,0,0,0,0,0,0,0,0.9197,0.9198,0.9202,0.9201,0.92,0.92,0.9205,0.9212,0.919,0.9193,0.9187,0.9186,0.9192,0.9192,0.9194,0.9212,0.9212,0.9191,0.9192,0.9192,0.9192,0,0,0,0,0,0,0,0.9196,0.9197,0.9212,0.9202,0.9201,0.9195,0.9195,0.9206,0.9198,0.9193,0.9191,0.9191,0.9191,0.9194,0.9194,0.9212,0.9191,0.9192,0.9192,0.9193,0.925,0.9251,0,0,0,0,0,0,0.9197,0.9197,0.9212,0.9212,0.9196,0.9196,0.9196,0.9201,0.9198,0.9196,0.9192,0.919,0.9193,0.9193,0.9194,0.9222,0.9192,0.9193,0.9193,0.9249,0.925,0.9251,0,0,0,0,0,0,0.9197,0.9199,0.9212,0.9204,0.9205,0.9198,0.9203,0.9201,0.9204,0.9197,0.9195,0.9196,0.9192,0.9193,0.9208,0.9222,0.9193,0.9194,0.9247,0.9249,0.925,0.9278,0,0,0,0,0,0,0.9197,0.9199,0.9208,0.9205,0.9206,0.9226,0.9204,0.9202,0.9205,0.9203,0.92,0.9199,0.9191,0.9207,0.9209,0.9222,0.9195,0.9246,0.9248,0.925,0.9276,0.928,0.9284,0,0,0,0,0,0.9196,0.9215,0.9208,0.921,0.9217,0.9227,0.9227,0.9218,0.9206,0.9215,0.9211,0.9199,0.922,0.9209,0.9211,0.9225,0.9245,0.9248,0.925,0.9274,0.9279,0.9284,0,0,0,0,0,0,0.922,0.9215,0.9207,0.9226,0.9227,0.9223,0.9234,0.9224,0.9228,0.9226,0.9214,0.9214,0.9231,0.9229,0.9216,0.9248,0.9231,0.9233,0.9248,0.9253,0.9257,0.9258,0.9195,0,0,0,0,0,0.9228,0.9236,0.9231,0.9248,0.9249,0.9241,0.9245,0.9238,0.9239,0.9239,0.9236,0.9237,0.9244,0.9248,0.9254,0.9275,0.9275,0.9286,0.929,0.9294,0.9296,0.9308,0.9313,0.9258,0.9258,0.9258,0,0,0.9243,0.9241,0.9247,0.9253,0.9253,0.9262,0.9242,0.9252,0.9259,0.924,0.9255,0.9252,0.9253,0.9271,0.9279,0.927,0.9311,0.9297,0.9299,0.93,0.9311,0.9316,0.9321,0.926,0.926,0.9259,0,0,0.9277,0.9276,0.929,0.9291,0.9291,0.9286,0.929,0.9287,0.9285,0.9299,0.9286,0.9293,0.9305,0.9306,0.9308,0.9343,0.9332,0.9345,0.9366,0.9378,0.9382,0.9386,0.9399,0.9404,0.9347,0.9347,0.9347,0,0.9296,0.9309,0.9299,0.9311,0.9314,0.9298,0.9312,0.9313,0.9316,0.9318,0.9308,0.9323,0.9322,0.9341,0.9349,0.9351,0.9355,0.9345,0.9383,0.9386,0.939,0.9402,0.9407,0.9349,0.9349,0.9349,0.9349,0,0.9333,0.9343,0.9355,0.9358,0.9362,0.9375,0.9367,0.9373,0.9365,0.9361,0.9376,0.9374,0.938,0.9384,0.9376,0.9402,0.9396,0.9385,0.9367,0.9397,0.9408,0.9413,0.9351,0.9351,0.935,0.935,0,0,0.9382,0.938,0.9384,0.9386,0.9385,0.9392,0.9405,0.941,0.9416,0.9418,0.9428,0.9439,0.9428,0.9431,0.9423,0.9434,0.9462,0.9421,0.9421,0.9429,0.949,0.95,0.9505,0.9455,0.9455,0.9456,0.9491,0,0.9415,0.9436,0.9428,0.945,0.9459,0.9444,0.9455,0.9456,0.9453,0.946,0.9456,0.9464,0.9449,0.9451,0.946,0.9456,0.9474,0.9454,0.9465,0.9465,0.9466,0.9511,0.952,0.9553,0.9495,0.9496,0.9496,0,0.9456,0.946,0.9484,0.9482,0.9486,0.9496,0.9501,0.9508,0.9508,0.9505,0.9508,0.9499,0.9511,0.9494,0.9511,0.9497,0.9501,0.95,0.9501,0.9502,0.9483,0.9514,0.9563,0.9568,0.9503,0.9502,0.9502,0,0.949,0.9501,0.9517,0.9519,0.9517,0.9525,0.9525,0.9525,0.9529,0.9533,0.9536,0.9541,0.9544,0.9549,0.9541,0.9529,0.956,0.9541,0.9558,0.9558,0.9565,0.9565,0.9616,0.9567,0.9567,0.9567,0.9567,0,0.9528,0.9543,0.9533,0.9542,0.9559,0.9549,0.9566,0.9563,0.9564,0.9573,0.956,0.9569,0.9558,0.9566,0.956,0.9575,0.9577,0.9575,0.9573,0.9576,0.9577,0.9579,0.9577,0.9568,0.9568,0.9567,0.9567,0,0.9569,0.9562,0.9579,0.9576,0.9576,0.9588,0.9586,0.9595,0.9591,0.9603,0.9605,0.9598,0.9607,0.96,0.9608,0.9604,0.9625,0.9619,0.9625,0.9623,0.964,0.9639,0.9696,0.9703,0.9648,0.9649,0.9649,0,0.9593,0.9605,0.9604,0.9609,0.961,0.9618,0.9623,0.9613,0.9619,0.9621,0.963,0.9637,0.9643,0.9657,0.9654,0.966,0.9655,0.9674,0.9656,0.9659,0.9656,0.9656,0.9657,0.9678,0.9679,0.968,0.968,0,0.9639,0.9635,0.9642,0.9648,0.9654,0.9658,0.9661,0.9666,0.9657,0.9663,0.9672,0.9676,0.9685,0.9693,0.9698,0.9698,0.9688,0.9686,0.969,0.9694,0.9696,0.9696,0.9635,0.9685,0.9684,0.9684,0.9684,0.9683,0.9673,0.9682,0.9683,0.9692,0.9693,0.9696,0.9705,0.9702,0.9709,0.9716,0.971,0.9721,0.9722,0.9728,0.9729,0.9737,0.9729,0.9735,0.9737,0.9739,0.9741,0.9695,0.9738,0.9738,0.9738,0.9738,0.9738,0,0.9718,0.9718,0.9725,0.973,0.9737,0.9727,0.973,0.9736,0.9746,0.9748,0.9754,0.9765,0.9772,0.9769,0.9776,0.9783,0.9779,0.9786,0.9785,0.9785,0.9748,0.9744,0.9789,0.9789,0.9789,0.9789,0.9789,0.9789,0.9742,0.9758,0.9755,0.9771,0.9771,0.9782,0.9785,0.9788,0.9789,0.9802,0.9808,0.9806,0.9806,0.9813,0.982,0.9819,0.9822,0.9831,0.9828,0.9793,0.9788,0.9783,0.9779,0.9831,0.9831,0.9865,0.9865,0.9865]},{"header":{"parameterUnit":"m.s-1","parameterCategory":1,"la1":30.2991,"la2":30.254,"lo1":-89.0895,"lo2":-89.0444,"dy":0.0017,"dx":0.0017,"nx":28,"ny":28,"refTime":"2025-01-16T03:00:00:Z","depth":0,"parameterNumber":3,"parameterNumberName":"V-component_of_WINDS"},"data":[0,0,0,0,0,0,0,0,0,0,0,0,0,0,0,0,0,0,0,0,0,0,0,0,0,0,0,0,0,0,0,0,0,0,0,0,0,0,0,0,0,0,0,0,0,0,0,0,0,0,0,0,0,0,0,0,0,0,-1.7132,-1.7133,0,-1.7182,-1.7183,-1.7184,-1.7176,-1.7175,-1.7175,-1.7174,-1.7225,-1.7227,-1.7229,0,0,0,0,0,0,0,0,0,0,0,0,0,-1.7032,-1.7034,-1.7132,-1.7133,-1.7134,-1.7182,-1.7183,-1.7184,-1.7176,-1.7175,-1.7174,-1.7173,-1.7224,-1.7227,-1.7229,0,0,0,0,0,0,0,0,0,0,0,0,0,-1.7078,-1.7034,-1.7132,-1.7136,-1.7137,-1.7182,-1.7183,-1.7184,-1.7177,-1.7175,-1.7174,-1.7173,-1.7224,-1.7227,-1.723,-1.7275,0,0,-1.724,-1.7241,0,0,0,0,0,0,0,0,-1.7075,-1.7082,-1.7135,-1.7136,-1.7137,-1.7172,-1.7166,-1.7214,-1.7177,-1.7161,-1.7174,-1.7172,-1.7208,-1.7213,-1.7225,-1.7277,-1.728,-1.724,-1.7242,-1.7243,-1.7244,0,0,0,0,0,0,0,-1.7072,-1.7079,-1.7152,-1.7136,-1.7137,-1.7135,-1.7141,-1.7175,-1.7191,-1.7163,-1.7162,-1.7168,-1.7209,-1.7222,-1.7226,-1.728,-1.724,-1.7243,-1.7245,-1.7246,-1.7374,-1.7375,0,0,0,0,0,0,-1.7068,-1.7077,-1.7151,-1.7154,-1.7102,-1.7138,-1.7144,-1.7162,-1.7191,-1.7194,-1.7169,-1.7168,-1.7217,-1.7222,-1.7228,-1.7283,-1.7243,-1.7246,-1.7248,-1.7372,-1.7374,-1.7376,0,0,0,0,0,0,-1.7066,-1.7074,-1.7149,-1.7115,-1.7125,-1.7141,-1.7161,-1.7163,-1.7177,-1.7196,-1.7199,-1.718,-1.7216,-1.7223,-1.7264,-1.7285,-1.7248,-1.7251,-1.737,-1.7373,-1.7375,-1.7394,0,0,0,0,0,0,-1.7063,-1.7074,-1.7091,-1.7116,-1.7126,-1.7183,-1.7163,-1.7165,-1.7182,-1.7181,-1.7207,-1.721,-1.7216,-1.7259,-1.7267,-1.7289,-1.7253,-1.7369,-1.7371,-1.7374,-1.7392,-1.7397,-1.7401,0,0,0,0,0,-1.7059,-1.7094,-1.7092,-1.7101,-1.7148,-1.7184,-1.7191,-1.7197,-1.7184,-1.7201,-1.7214,-1.7209,-1.7281,-1.7263,-1.7272,-1.7295,-1.7367,-1.7371,-1.7374,-1.739,-1.7396,-1.7401,0,0,0,0,0,0,-1.7071,-1.7097,-1.7095,-1.7139,-1.7159,-1.7183,-1.7205,-1.7203,-1.7228,-1.7225,-1.7232,-1.7238,-1.7279,-1.7291,-1.727,-1.7341,-1.7323,-1.7328,-1.7332,-1.7338,-1.7342,-1.7339,-1.7256,0,0,0,0,0,-1.7079,-1.7106,-1.7128,-1.7164,-1.7175,-1.7188,-1.7204,-1.7208,-1.7229,-1.7238,-1.7254,-1.7275,-1.7303,-1.7321,-1.7347,-1.7394,-1.74,-1.7414,-1.7419,-1.7423,-1.7427,-1.7454,-1.7461,-1.7386,-1.7386,-1.7386,0,0,-1.7095,-1.7113,-1.7129,-1.7167,-1.7183,-1.7212,-1.7196,-1.7226,-1.7248,-1.7243,-1.7282,-1.7294,-1.7319,-1.7362,-1.7382,-1.7374,-1.7449,-1.7427,-1.743,-1.7432,-1.7458,-1.7465,-1.7471,-1.7389,-1.7388,-1.7388,0,0,-1.7139,-1.7155,-1.7187,-1.7204,-1.723,-1.7239,-1.7247,-1.7271,-1.7279,-1.7319,-1.7316,-1.7342,-1.7389,-1.7407,-1.7422,-1.7475,-1.7471,-1.7483,-1.7508,-1.7533,-1.7539,-1.7544,-1.7564,-1.7571,-1.7487,-1.7487,-1.7487,0,-1.7156,-1.7198,-1.7204,-1.7236,-1.7253,-1.725,-1.7284,-1.73,-1.7333,-1.7345,-1.7334,-1.7395,-1.7411,-1.7459,-1.7472,-1.7485,-1.7494,-1.748,-1.7538,-1.7543,-1.7548,-1.7567,-1.7574,-1.7489,-1.7489,-1.7488,-1.7488,0,-1.7218,-1.7248,-1.7271,-1.7303,-1.7323,-1.7355,-1.7367,-1.7386,-1.7388,-1.7398,-1.7439,-1.7459,-1.749,-1.7502,-1.7503,-1.7551,-1.7545,-1.7536,-1.7518,-1.7556,-1.7574,-1.7581,-1.7491,-1.749,-1.749,-1.7489,0,0,-1.727,-1.7306,-1.7315,-1.733,-1.7358,-1.7381,-1.7414,-1.7444,-1.7461,-1.7484,-1.7512,-1.7553,-1.7546,-1.7563,-1.7567,-1.759,-1.7631,-1.7578,-1.7579,-1.7588,-1.7686,-1.7692,-1.77,-1.7629,-1.763,-1.7631,-1.7684,0,-1.7317,-1.7375,-1.7382,-1.7433,-1.7461,-1.746,-1.7488,-1.7509,-1.752,-1.7546,-1.7558,-1.7587,-1.7575,-1.7585,-1.7608,-1.7621,-1.7651,-1.7617,-1.7656,-1.7657,-1.765,-1.7709,-1.7716,-1.7765,-1.7691,-1.7692,-1.7693,0,-1.738,-1.7405,-1.7459,-1.7485,-1.7497,-1.7522,-1.7551,-1.7576,-1.76,-1.7606,-1.7626,-1.7628,-1.7662,-1.7643,-1.7691,-1.7668,-1.7684,-1.7694,-1.7696,-1.77,-1.7677,-1.7716,-1.778,-1.7788,-1.7703,-1.7703,-1.7702,0,-1.7413,-1.7461,-1.7499,-1.7512,-1.7543,-1.7561,-1.7575,-1.7597,-1.7616,-1.7641,-1.7653,-1.7683,-1.7699,-1.7722,-1.7731,-1.7716,-1.7779,-1.776,-1.7786,-1.7786,-1.78,-1.7799,-1.7868,-1.7809,-1.7809,-1.7809,-1.7809,0,-1.7465,-1.7498,-1.7515,-1.7539,-1.7577,-1.7585,-1.7622,-1.7635,-1.7656,-1.7683,-1.7683,-1.7708,-1.7719,-1.7747,-1.7754,-1.7794,-1.7801,-1.7807,-1.7809,-1.7808,-1.7807,-1.7819,-1.7816,-1.7811,-1.7811,-1.781,-1.781,0,-1.7509,-1.7521,-1.7563,-1.7589,-1.7596,-1.7623,-1.7645,-1.7669,-1.768,-1.7714,-1.7723,-1.774,-1.7772,-1.7784,-1.7823,-1.7829,-1.7875,-1.7873,-1.7867,-1.7867,-1.7893,-1.7891,-1.7973,-1.7984,-1.7917,-1.7918,-1.7918,0,-1.7541,-1.7567,-1.7596,-1.7614,-1.7628,-1.7657,-1.7676,-1.7686,-1.7705,-1.7736,-1.7756,-1.7788,-1.7814,-1.7866,-1.7882,-1.7913,-1.7913,-1.7939,-1.7917,-1.7915,-1.7914,-1.7913,-1.7916,-1.7944,-1.7944,-1.7945,-1.7945,0,-1.7598,-1.7603,-1.763,-1.766,-1.7683,-1.7706,-1.773,-1.7745,-1.7758,-1.778,-1.7813,-1.7834,-1.7874,-1.7907,-1.7938,-1.7953,-1.7952,-1.7952,-1.796,-1.7959,-1.7954,-1.7958,-1.7878,-1.795,-1.795,-1.7949,-1.7949,-1.7949,-1.7637,-1.7661,-1.7685,-1.7716,-1.7734,-1.7756,-1.778,-1.7794,-1.7822,-1.7856,-1.786,-1.7896,-1.792,-1.7963,-1.7979,-1.8007,-1.8,-1.8011,-1.8014,-1.8017,-1.8019,-1.7949,-1.8013,-1.8013,-1.8013,-1.8013,-1.8013,0,-1.7695,-1.771,-1.7739,-1.7771,-1.7796,-1.7793,-1.7819,-1.7839,-1.7871,-1.7894,-1.792,-1.7959,-1.7991,-1.801,-1.8042,-1.8062,-1.8062,-1.807,-1.8069,-1.8072,-1.8023,-1.8014,-1.8069,-1.8069,-1.8069,-1.8069,-1.8069,-1.8069,-1.7727,-1.7767,-1.7775,-1.7824,-1.784,-1.7875,-1.7891,-1.7911,-1.793,-1.7973,-1.8,-1.8012,-1.8034,-1.8068,-1.8097,-1.8102,-1.8114,-1.8123,-1.8127,-1.8081,-1.8075,-1.807,-1.8061,-1.8125,-1.8125,-1.8174,-1.8174,-1.8175]}]]